Weather in Ugnev

Ukraine / Lviv District     50°22′05″N   23°44′51″E
temp.,
°C
wind,
m/s
gust,
m/s
humid.,
%
clouds,
%
prec.,
mm/h
press.,
hPa
HPBL,
m
7 march, sun
sun723:00−1wsw512720 0.0 1028380
02:00−1wsw614690 0.0 1027469
05:00−1wsw815610 0.0 1024671
08:000wsw9165514 0.0 1023951
11:00+3w10165080 0.0 10211310
14:00+5w10164664 0.0 10191517
17:00+4w8145026 0.0 10171485
20:00+1w5136533 0.0 1016533
8 march, mon
mon823:000w5137892 0.0 1015719
02:00−1w6128877 0.1 1015575
05:00−1w6119096 0.3 1015648
08:00−1nnw588498 0.8 1016574
11:00+1nw685439 0.0 10171253
14:00+2nw795452 0.0 10181630
17:00+1nw6860100 0.1 10191421
20:00−2nw3778100 0.1 1021204
9 march, tue
tue923:00−3wnw358213 0.0 1022134
02:00−3w35817 0.0 1022146
05:00−4wnw23843 0.0 102290
08:00−3nw237646 0.0 1023265
11:000nnw235487 0.0 10231081
14:00+1n224894 0.1 10231303
17:00+1ne2150100 0.0 10221148
20:00−2ese2364100 0.0 102358
10 march, wed
wed1023:00−3ese246990 0.0 1023117
02:00−2ese236995 0.0 1022127
05:00−2e2370100 0.0 1021117
08:00−2e2367100 0.0 1022188
11:00+1ene224995 0.0 1022986
14:00+2ne324376 0.0 10221524
17:00+1ne2349100 0.0 10221289
20:00−2e116377 0.0 102421
11 march, thu
thu1123:00−2s116464 0.0 102521
02:00−2ssw236448 0.0 102437
05:00−3ssw236915 0.0 102366
08:00−1s35647 0.0 1023221
11:00+2s575272 0.0 1021802
14:00+4ssw694386 0.0 10181113
17:00+3ssw51161100 0.0 1016918
20:000ssw81597100 0.3 1014750